Location: Chateh
(58.6667°N, 118.6000°W)
Time: 09:57:44
(UTC+00:00)

PCSat - Pass Details

Date: 12 December 2023
Orbit: 784 x 791 km, 67.0° (Epoch: 01 March)

Event Time Altitude Azimuth Distance (km) Brightness Sun altitude
Exits shadow 12:17:14 43° 34° (NE) 1,096 10.4 -31.3°
Drops below altitude 10° 12:20:56 10° 48° (NE) 2,365 12.6 -30.8°
Sets 12:23:22 0° 50° (NE) 3,298 13.6 -30.5°
